Regional Weather Roundup
Issued by NWS

Home | Current Version | Previous Version | Graphics & Text | Print | Product List | Glossary Off
Versions: 1 2 3 4 5 6 7 8 9 10 11 12 13 14 15 16 17 18 19 20 21 22 23 24 25 26 27 28 29 30 31 32 33 34 35 36 37 38 39 40 41 42 43 44 45 46 47 48 49 50

000
ASUS43 KMKX 301200
RWRWI

WISCONSIN REGIONAL WEATHER ROUNDUP
NATIONAL WEATHER SERVICE MILWAUKEE/SULLIVAN WI
700 AM CDT SAT JUL 30 2016

NOTE: "FAIR" INDICATES FEW OR NO CLOUDS BELOW 12,000 FEET WITH NO
SIGNIFICANT WEATHER AND/OR OBSTRUCTIONS TO VISIBILITY.

WIZ001-002-006>008-014>016-023>028-301300-
NORTHWEST WISCONSIN

CITY           SKY/WX    TMP DP  RH WIND       PRES   REMARKS
SUPERIOR ARPT  FOG       54  54 100 CALM      30.07S VSB<1/4
ASHLAND        CLOUDY    55  53  93 CALM      30.08R
6HR MIN TEMP:  49; 6HR MAX TEMP:  55;

HAYWARD        CLOUDY    61  58  90 CALM      30.07S
6HR MIN TEMP:  53; 6HR MAX TEMP:  61;

SIREN          NOT AVBL
CUMBERLAND     MOSUNNY   55  54  94 E3        30.07S
RICE LAKE      MOSUNNY   56  55  94 CALM      30.08R
CHETEK         MOSUNNY   61  59  95 CALM      30.06S
LADYSMITH      SUNNY     57  56  96 E6        30.09S
EAU CLAIRE     NOT AVBL
MENOMONIE      SUNNY     60  59  96 CALM      30.05R
NEW RICHMOND   PTSUNNY   60  60  97 E6        30.05R
OSCEOLA        MOCLDY    61  61 100 CALM      30.07R
$$

WIZ003>005-009-010-017-018-301300-
NORTH CENTRAL WISCONSIN

CITY           SKY/WX    TMP DP  RH WIND       PRES   REMARKS
MANITOWISH WTR MOSUNNY   55  55 100 CALM      30.11R
ARBOR VITAE    CLOUDY    57  55  94 CALM      30.11R
WOODRUFF       CLOUDY    57  55  94 CALM      30.11R
RHINELANDER    SUNNY     58  55  90 CALM      30.11R
6HR MIN TEMP:  52; 6HR MAX TEMP:  58;

EAGLE RIVER    SUNNY     52  52 100 CALM      30.11R
LAND O LAKES   SUNNY     52  52 100 CALM      30.12R
PHILLIPS       CLOUDY    56  56 100 CALM      30.09S
6HR MIN TEMP:  54; 6HR MAX TEMP:  58;

TOMAHAWK       FOG       48  47  97 CALM      30.11R VSB 1/4
MEDFORD        MOSUNNY   56  56 100 NE3       30.08S
MERRILL        MOSUNNY   52  51  98 CALM      30.09S
$$

WIZ029-030-035-036-043>047-301300-
CENTRAL WISCONSIN

CITY           SKY/WX    TMP DP  RH WIND       PRES   REMARKS
WAUSAU         PTSUNNY   61  54  77 VRB3      30.06R
6HR MIN TEMP:  58; 6HR MAX TEMP:  61;

MOSINEE        PTSUNNY   59  55  88 NE5       30.08R
MARSHFIELD     MOSUNNY   60  55  83 NE6       30.06R
6HR MIN TEMP:  60; 6HR MAX TEMP:  62;

STEVENS POINT  CLOUDY    59  56  88 CALM      30.07R
WAUPACA        PTSUNNY   64  62  92 N5        30.05R
WAUTOMA        CLOUDY    63  59  87 NE6       30.05R
6HR MIN TEMP:  63; 6HR MAX TEMP:  65;

WISC RAPIDS    PTSUNNY   63  56  78 E5        30.06R
6HR MIN TEMP:  60; 6HR MAX TEMP:  64;

CAMP DOUGLAS   NOT AVBL
$$

WIZ011>013-019>022-031-037>040-048>050-301300-
NORTHEAST WISCONSIN

CITY           SKY/WX    TMP DP  RH WIND       PRES   REMARKS
ANTIGO         SUNNY     55  53  94 CALM      30.10R
SHAWANO        MOSUNNY   62  57  84 N7        30.07R
OCONTO         SUNNY    N/A N/A N/A N3        30.06R
STURGEON BAY   SUNNY     66  58  75 E5        30.07R
6HR MIN TEMP:  64; 6HR MAX TEMP:  67;

GREEN BAY      PTSUNNY   61  61 100 N7        30.05R
6HR MIN TEMP:  58; 6HR MAX TEMP:  63;

MANITOWOC      NOT AVBL
APPLETON       PTSUNNY   63  59  88 NE7       30.03R
CLINTONVILLE   CLOUDY    61  55  82 NE6       30.06R
OSHKOSH        CLOUDY    69  61  75 NE7       30.03R
6HR MIN TEMP:  66; 6HR MAX TEMP:  70;

$$

WIZ032>034-041-042-053>061-301300-
SOUTHWEST WISCONSIN

CITY           SKY/WX    TMP DP  RH WIND       PRES   REMARKS
LA CROSSE      PTSUNNY   68  64  87 NE3       30.02S
6HR MIN TEMP:  66; 6HR MAX TEMP:  68;

SPARTA         PTSUNNY   62  60  96 NE5       30.05R
VIROQUA        PTSUNNY   63  62  96 CALM      30.04R
6HR MIN TEMP:  63; 6HR MAX TEMP:  65;

BOSCOBEL       CLOUDY    64  63  96 CALM      30.02R
6HR MIN TEMP:  61; 6HR MAX TEMP:  64;

PRAIRIE DU CHI   N/A     64  62  90 CALM      30.01R
PLATTEVILLE    CLOUDY    65  65 100 N6        30.01R
$$

WIZ056-057-062-063-064-067-068-301300-
SOUTH CENTRAL WISCONSIN

CITY           SKY/WX    TMP DP  RH WIND       PRES   REMARKS
REEDSBURG      CLOUDY    63  61  93 CALM      30.03R
BARABOO/DELLS  CLOUDY    62  59  90 CALM      30.04R
LONE ROCK      NOT AVBL
MINERAL POINT  CLOUDY    64  63  94 N3        30.02R
MADISON        PTSUNNY   64  59  83 NE6       30.01R
6HR MIN TEMP:  62; 6HR MAX TEMP:  67;

MIDDLETON      CLOUDY    64  61  88 NE3       30.02S
WATERTOWN      CLOUDY    64  64  99 NE5       30.01R
MONROE         PTSUNNY   63  63 100 N7        30.00R
JANESVILLE     CLOUDY    68  64  88 NE6       29.99R
$$

WIZ051-052-058>065-066-070>072-301300-
SOUTHEAST WISCONSIN

CITY           SKY/WX    TMP DP  RH WIND       PRES   REMARKS
MILWAUKEE      PTSUNNY   69  64  84 NE7       29.99S
6HR MIN TEMP:  67; 6HR MAX TEMP:  72;

WAUKESHA       MOSUNNY   64  59  82 CALM      30.02R
MILWAUKEE/TIMM PTSUNNY   64  59  82 NE3       30.01R
RACINE         PTSUNNY   70  64  81 NE8       30.01R
6HR MIN TEMP:  66; 6HR MAX TEMP:  71;

BURLINGTON     CLOUDY    65  64  95 NE3       30.00R
KENOSHA        CLOUDY    69  61  75 E7        29.99R
6HR MIN TEMP:  65; 6HR MAX TEMP:  69;

FOND DU LAC    CLOUDY    68  60  75 NE6       30.03R
6HR MIN TEMP:  62; 6HR MAX TEMP:  68;

SHEBOYGAN      SUNNY     63  60  90 NE6       30.02S
6HR MIN TEMP:  59; 6HR MAX TEMP:  64;

WEST BEND      CLOUDY    63  59  88 CALM      30.02R
JUNEAU         CLOUDY    64  61  90 NE6       30.03R
$$

LSZ147-162-301300-
LAKE SUPERIOR

STATION/POSITION TIME  TEMP    WIND        PRES    WAVE
                       AIR SEA DIR/SP/G            HT/PER
                 (UTC) (F)     (DEG/KT/KT) (MB)    (FT/S)
W MID LAKE BUOY  1050   62 61   80/  8/  8 1017.4R   0
DEVILS ISLAND    1100   64     100/  7/  8 1018.0R
PORT WING        1100   54     170/  2/  3 1017.9R
SAXON HARBOR     1100   55     190/  3/  4 1017.9R
$$

LMZ867-665-643>646-301300-
LAKE MICHIGAN

STATION/POSITION TIME  TEMP    WIND        PRES    WAVE
                       AIR SEA DIR/SP/G            HT/PER
                 (UTC) (F)     (DEG/KT/KT) (MB)    (FT/S)
CHAMBERS ISLAND  1100   69      50/  5/  8 1017.9R
S GREEN BAY BUOY 1100   68 70   60/ 12/ 14 1016.8
N MID LAKE BUOY  1050   69 69   70/ 10/ 12 1017.3R   1/ 3
NORTHPORT PIER   1100   70      80/  7/ 10 1017.9R
SISTER BAY       1121   63        CALM       N/A
ALGOMA LAKESHORE 1043           80/  9/ 10   N/A
KEWAUNEE LAKESHO 1100   66      60/  2/  4 1016.6R
SHEBOYGAN LAKESH 1100   67      20/  4/  5 1016.5R
PORT WASHINGTON  1140   69      40/  5/  7 1016.9R
ATWATER BUOY     1100   63 60  360/  4/  6 1017.2R
MILWAUKEE LAKESH 1110   66      30/  6/  6   N/A
S MID LAKE BUOY  1050   68 73   90/ 17/ 19 1013.8R   4/ 5
KENOSHA   LAKESH 1100   69     100/ 15/ 19 1014.6R
$$

TC  - TEMPERATURE IN CELSIUS
VSB - VISIBILITY IN STATUTE MILES
WCI - WIND CHILL INDEX
HX  - HEAT INDEX





USA.gov is the U.S. government's official web portal to all federal, state and local government web resources and services.